sat.trackr.live / text

‹ back to catalog

STARLINK-35705

NORAD 67039 · 2025-294K

PAYLOAD ACTIVE UNKNOWN

§ Identity

Operator
Country
US
Launch date
2025-12-11
Launch site
AFETR
Launch vehicle
Mass (kg)
RCS (m²)

Purposes: comms

External: N2YO · Heavens-Above · Gunter

§ Orbital elements

Epoch: 2026-05-24T21:10:57.727776Z

Period
94.27 min
Inclination
43.0024°
Eccentricity
0.0001347
Mean motion
15.27597536 rev/d
Perigee alt
482.1 km
Apogee alt
483.9 km
Semi-major
6,861.1 km
B*
4.6395e-4
RAAN
327.6278°
Arg perigee
275.7171°
Mean anomaly
84.3527°
Rev number
2,645

§ Raw data

STARLINK-357051 67039U 25294K   26144.88261259  .00012533  00000+0  46395-3 0  99982 67039  43.0024 327.6278 0001347 275.7171  84.3527 15.27597536 26456

JSON: /api/v1/satellites/67039 · /tle

For live sub-satellite position, see the globe view (requires WebGL).

§ Visibility from observer

Set your observer location to see the next 7 days of passes ≥ 10°. The values pass through the URL so the page stays shareable.

No JS? Fill the form by hand. The geolocation button needs JavaScript.